[[[{"header":{"parameterUnit":"kt","parameterCategory":2,"dx":1,"dy":1,"la1":30.253999710083008,"la2":30.299108505249023,"lo1":-89.0895004272461,"lo2":-89.04439544677734,"nx":28,"ny":28,"refTime":"2022-09-28T21:00:00:Z","depth":0,"parameterNumber":1,"parameterNumberName":"U-component_of_WINDS"},"data":[-8.566,-8.5775,-8.5748,-8.5866,-8.5861,-8.5937,-8.5955,-8.5976,-8.5985,-8.6071,-8.6116,-8.6099,-8.6097,-8.6143,-8.6189,-8.618,-8.6203,-8.6264,-8.6244,-8.5997,-8.5961,-8.5927,-8.5899,-8.6269,-8.6269,-8.6504,-8.6506,-8.6508,-8.5482,-8.5479,-8.5533,-8.5568,-8.5614,-8.5539,-8.5559,-8.5603,-8.5672,-8.5684,-8.5726,-8.58,-8.5854,-8.583,-8.5877,-8.593,-8.5897,-8.5945,-8.5942,-8.5943,-8.5677,-8.5648,-8.597,-8.597,-8.597,-8.597,-8.597,-8.597,-8.5151,-8.5221,-8.5225,-8.5284,-8.5293,-8.5316,-8.5377,-8.5355,-8.5407,-8.5454,-8.5409,-8.5487,-8.5493,-8.5536,-8.5543,-8.5602,-8.5545,-8.5588,-8.5599,-8.5612,-8.563,-8.5298,-8.5608,-8.5607,-8.5606,-8.5605,-8.5605,0,-8.4901,-8.4873,-8.4923,-8.4965,-8.5006,-8.5035,-8.5058,-8.5094,-8.5025,-8.5071,-8.5135,-8.5167,-8.523,-8.5287,-8.5324,-8.5322,-8.525,-8.5238,-8.5268,-8.5293,-8.531,-8.5305,-8.4876,-8.523,-8.5227,-8.5224,-8.5222,-8.5221,-8.4566,-8.465,-8.4641,-8.468,-8.4685,-8.4748,-8.478,-8.4712,-8.4749,-8.4766,-8.483,-8.4886,-8.4927,-8.5034,-8.5006,-8.5053,-8.5019,-8.5157,-8.5025,-8.5045,-8.5024,-8.5021,-8.5029,-8.5186,-8.519,-8.5194,-8.5197,0,-8.4381,-8.4335,-8.4456,-8.4438,-8.4435,-8.4527,-8.4511,-8.4577,-8.4547,-8.4634,-8.465,-8.4605,-8.4669,-8.4618,-8.468,-8.4652,-8.4802,-8.4766,-8.48,-8.4791,-8.4912,-8.4902,-8.5308,-8.5358,-8.4972,-8.4975,-8.4978,0,-8.4079,-8.4192,-8.4116,-8.4189,-8.4311,-8.424,-8.4363,-8.4349,-8.4353,-8.4421,-8.4329,-8.4394,-8.4319,-8.4377,-8.4335,-8.4448,-8.4459,-8.4445,-8.4433,-8.4455,-8.4458,-8.4476,-8.4459,-8.44,-8.4398,-8.4396,-8.4395,0,-8.3797,-8.3887,-8.4004,-8.4017,-8.4009,-8.4065,-8.4064,-8.4067,-8.4099,-8.4131,-8.4151,-8.4195,-8.4219,-8.4254,-8.42,-8.4113,-8.4336,-8.4205,-8.4322,-8.4324,-8.4377,-8.4375,-8.4744,-8.4392,-8.4391,-8.4391,-8.439,0,-8.3546,-8.3581,-8.3757,-8.3748,-8.3774,-8.3851,-8.3889,-8.3943,-8.3952,-8.3931,-8.3956,-8.3889,-8.3982,-8.3856,-8.3984,-8.3885,-8.3914,-8.3908,-8.3916,-8.3924,-8.3784,-8.4003,-8.4358,-8.4394,-8.3927,-8.3924,-8.392,0,-8.3236,-8.3401,-8.3341,-8.351,-8.3579,-8.3471,-8.3555,-8.3566,-8.3544,-8.3599,-8.3574,-8.3638,-8.3532,-8.3545,-8.3615,-8.3592,-8.372,-8.3573,-8.3655,-8.3659,-8.3659,-8.3984,-8.4051,-8.4285,-8.387,-8.3875,-8.3879,0,-8.2991,-8.2979,-8.3014,-8.3026,-8.3029,-8.3086,-8.3182,-8.3229,-8.3269,-8.329,-8.337,-8.3456,-8.3381,-8.3403,-8.3353,-8.3429,-8.3631,-8.3338,-8.3337,-8.3395,-8.384,-8.3903,-8.3942,-8.3581,-8.3587,-8.3592,-8.3839,0,-8.2627,-8.2702,-8.2792,-8.2822,-8.2857,-8.296,-8.2905,-8.295,-8.2898,-8.2873,-8.2987,-8.2982,-8.3031,-8.3061,-8.3011,-8.3199,-8.316,-8.3079,-8.2954,-8.3167,-8.3248,-8.328,-8.2839,-8.2835,-8.2832,-8.2829,0,0,-8.2343,-8.245,-8.2381,-8.2471,-8.2497,-8.2384,-8.2499,-8.251,-8.2538,-8.2559,-8.2488,-8.2611,-8.2611,-8.2756,-8.2818,-8.2836,-8.2866,-8.2793,-8.3066,-8.3092,-8.3117,-8.3204,-8.3238,-8.2823,-8.2821,-8.282,-8.2819,0,-8.2199,-8.2201,-8.2314,-8.2323,-8.2334,-8.2301,-8.2329,-8.232,-8.2309,-8.242,-8.2326,-8.2388,-8.2488,-8.25,-8.252,-8.2774,-8.27,-8.2792,-8.2947,-8.3033,-8.3065,-8.3092,-8.3184,-8.3218,-8.2811,-8.2812,-8.2812,0,-8.1949,-8.1943,-8.1991,-8.2044,-8.205,-8.2124,-8.1979,-8.2062,-8.2116,-8.1988,-8.2101,-8.2091,-8.2103,-8.2247,-8.2309,-8.2247,-8.2553,-8.2446,-8.2465,-8.2472,-8.2553,-8.259,-8.2624,-8.2184,-8.2182,-8.2181,0,0,-8.1833,-8.1902,-8.1874,-8.2009,-8.2019,-8.1972,-8.2005,-8.1957,-8.197,-8.1976,-8.1962,-8.1978,-8.2035,-8.2074,-8.2125,-8.229,-8.2288,-8.2371,-8.24,-8.2425,-8.2445,-8.2532,-8.2569,-8.2173,-8.2173,-8.2173,0,0,-8.1777,-8.1749,-8.1695,-8.1845,-8.1861,-8.1841,-8.1926,-8.1859,-8.1899,-8.1882,-8.1804,-8.1805,-8.1938,-8.1932,-8.184,-8.208,-8.1957,-8.1978,-8.2079,-8.2116,-8.2145,-8.2144,-8.1692,0,0,0,0,0,-8.1603,-8.1752,-8.1703,-8.172,-8.1787,-8.1869,-8.1877,-8.1816,-8.1731,-8.1799,-8.1777,-8.1695,-8.1866,-8.1783,-8.1801,-8.1906,-8.2078,-8.2095,-8.2111,-8.2279,-8.2318,-8.2351,0,0,0,0,0,0,-8.1609,-8.163,-8.1699,-8.1687,-8.1701,-8.1863,-8.1704,-8.1692,-8.1722,-8.1705,-8.1702,-8.1695,-8.1645,-8.1769,-8.1786,-8.1887,-8.1686,-8.2085,-8.2099,-8.2112,-8.2293,-8.2324,-8.2352,0,0,0,0,0,-8.1613,-8.163,-8.1753,-8.1685,-8.1697,-8.1652,-8.1698,-8.1687,-8.1709,-8.1675,-8.1665,-8.166,-8.165,-8.166,-8.1779,-8.1881,-8.1673,-8.168,-8.2094,-8.2105,-8.2115,-8.2308,0,0,0,0,0,0,-8.1617,-8.162,-8.1754,-8.1755,-8.1623,-8.1642,-8.1643,-8.1683,-8.1675,-8.1667,-8.1628,-8.1615,-8.1655,-8.1662,-8.167,-8.1882,-8.1663,-8.167,-8.1674,-8.2102,-8.2111,-8.2119,0,0,0,0,0,0,-8.161,-8.1622,-8.1754,-8.1681,-8.1673,-8.1633,-8.1634,-8.1726,-8.1677,-8.1629,-8.1617,-8.1623,-8.1642,-8.1664,-8.167,-8.1816,-8.1655,-8.1662,-8.1666,-8.1669,-8.211,-8.2117,0,0,0,0,0,0,-8.1614,-8.1624,-8.168,-8.1674,-8.1667,-8.168,-8.1713,-8.1785,-8.1614,-8.1631,-8.1596,-8.1589,-8.1646,-8.1651,-8.167,-8.1815,-8.1816,-8.1656,-8.166,-8.1663,-8.1665,0,0,0,0,0,0,0,-8.1617,-8.1565,-8.1745,-8.1669,-8.1662,-8.1769,-8.177,-8.177,-8.1612,-8.1605,-8.1598,-8.1592,-8.1618,-8.1625,-8.1632,-8.1814,0,0,-8.1655,-8.1658,0,0,0,0,0,0,0,0,-8.1559,-8.1563,-8.1745,-8.1745,-8.1746,-8.1769,-8.177,-8.177,-8.1611,-8.1605,-8.16,-8.1595,-8.162,-8.1626,-8.1632,0,0,0,0,0,0,0,0,0,0,0,0,0,0,0,-8.1745,-8.1745,0,-8.1769,-8.177,-8.177,-8.161,-8.1605,-8.1601,-8.1597,-8.1622,-8.1626,-8.1631,0,0,0,0,0,0,0,0,0,0,0,0,0,0,0,0,0,0,0,0,0,0,0,0,0,0,0,0,0,0,0,0,0,0,0,0,0,0,0,0,0,0,0,0,0,0,0,0,0,0,0,0,0,0,0,0,0,0,0,0,0,0,0,0,0,0,0,0,0]}],[{"header":{"parameterUnit":"kt","parameterCategory":2,"dx":1,"dy":1,"la1":30.253999710083008,"la2":30.299108505249023,"lo1":-89.0895004272461,"lo2":-89.04439544677734,"nx":28,"ny":28,"refTime":"2022-09-28T21:00:00:Z","depth":0,"parameterNumber":2,"parameterNumberName":"V-component_of_WINDS"},"data":[-20.1057,-20.1217,-20.1197,-20.1369,-20.1379,-20.1492,-20.1524,-20.1564,-20.1589,-20.1718,-20.1787,-20.1778,-20.179,-20.1865,-20.1936,-20.1929,-20.1961,-20.2035,-20.2014,-20.1706,-20.1661,-20.1619,-20.158,-20.2043,-20.2044,-20.2337,-20.2339,-20.2342,-20.0837,-20.085,-20.0935,-20.1002,-20.1074,-20.0991,-20.1035,-20.11,-20.1201,-20.1232,-20.1299,-20.1408,-20.149,-20.1476,-20.155,-20.162,-20.1583,-20.1642,-20.1635,-20.1638,-20.1308,-20.1268,-20.1672,-20.1671,-20.1671,-20.1671,-20.1671,-20.1671,-20.0431,-20.0528,-20.0556,-20.0647,-20.0674,-20.0718,-20.0805,-20.0792,-20.0872,-20.0948,-20.0903,-20.1015,-20.1038,-20.1112,-20.113,-20.1215,-20.1143,-20.1199,-20.1213,-20.1228,-20.1249,-20.083,-20.1226,-20.1224,-20.1223,-20.1222,-20.1221,0,-20.0125,-20.0101,-20.018,-20.0253,-20.0317,-20.037,-20.0414,-20.0466,-20.0399,-20.0467,-20.0563,-20.0613,-20.071,-20.0795,-20.0856,-20.0862,-20.0776,-20.0764,-20.0802,-20.0826,-20.0842,-20.0835,-20.0298,-20.0751,-20.0747,-20.0744,-20.0742,-20.074,-19.9713,-19.9828,-19.9845,-19.9903,-19.9921,-20.0015,-20.0065,-19.9997,-20.0053,-20.0094,-20.018,-20.0264,-20.0328,-20.0481,-20.0457,-20.0529,-20.0487,-20.0663,-20.0496,-20.0517,-20.0489,-20.0483,-20.0493,-20.0696,-20.0702,-20.0707,-20.071,0,-19.9483,-19.9444,-19.9614,-19.9616,-19.962,-19.9743,-19.9742,-19.9834,-19.9808,-19.993,-19.9954,-19.9913,-20.0006,-19.9954,-20.0047,-20.0016,-20.0214,-20.0172,-20.0207,-20.0195,-20.0348,-20.0334,-20.0851,-20.0915,-20.0435,-20.044,-20.0444,0,-19.9115,-19.9268,-19.92,-19.93,-19.9466,-19.9393,-19.9559,-19.9553,-19.9571,-19.9665,-19.9561,-19.9651,-19.9569,-19.9652,-19.9607,-19.9759,-19.9776,-19.9761,-19.9747,-19.9771,-19.9773,-19.9796,-19.9773,-19.9711,-19.9709,-19.9706,-19.9704,0,-19.8759,-19.8899,-19.9062,-19.9087,-19.9101,-19.9179,-19.9188,-19.9206,-19.9254,-19.9308,-19.9338,-19.9405,-19.9442,-19.9495,-19.9436,-19.9325,-19.9621,-19.9455,-19.9605,-19.9607,-19.9671,-19.9668,-20.0141,-19.9701,-19.97,-19.9699,-19.9698,0,-19.8454,-19.8514,-19.8755,-19.8764,-19.8803,-19.8909,-19.8971,-19.9049,-19.9075,-19.9054,-19.9095,-19.9017,-19.9145,-19.8986,-19.9161,-19.9033,-19.9074,-19.9071,-19.9081,-19.9087,-19.8909,-19.9183,-19.964,-19.9685,-19.9097,-19.9092,-19.9087,0,-19.8057,-19.8289,-19.8227,-19.8456,-19.8555,-19.8431,-19.8546,-19.8572,-19.8553,-19.8632,-19.8609,-19.8698,-19.8568,-19.8588,-19.8682,-19.8661,-19.8827,-19.8637,-19.8748,-19.8753,-19.8745,-19.9166,-19.9246,-19.9546,-19.9022,-19.9029,-19.9034,0,-19.7743,-19.776,-19.7805,-19.783,-19.7853,-19.7934,-19.8067,-19.814,-19.8196,-19.8235,-19.8343,-19.8467,-19.8373,-19.8407,-19.8348,-19.8449,-19.8712,-19.8334,-19.8333,-19.8404,-19.8984,-19.9061,-19.9112,-19.8651,-19.8658,-19.8665,-19.8982,0,-19.7292,-19.7401,-19.7521,-19.7578,-19.7632,-19.7771,-19.7715,-19.7779,-19.7719,-19.7694,-19.7851,-19.7854,-19.7925,-19.7967,-19.7907,-19.8155,-19.8104,-19.8002,-19.784,-19.8117,-19.822,-19.8262,-19.7692,-19.7686,-19.7682,-19.7679,0,0,-19.6921,-19.7076,-19.7001,-19.7127,-19.7168,-19.7034,-19.7188,-19.7211,-19.726,-19.7291,-19.7201,-19.7375,-19.7381,-19.7576,-19.7658,-19.7686,-19.7725,-19.7629,-19.7986,-19.802,-19.8052,-19.8163,-19.8208,-19.7671,-19.7669,-19.7668,-19.7666,0,-19.6744,-19.6759,-19.6913,-19.6934,-19.6963,-19.6929,-19.6966,-19.6969,-19.696,-19.7112,-19.6996,-19.7082,-19.7222,-19.7244,-19.7273,-19.7605,-19.7511,-19.7631,-19.783,-19.7944,-19.7985,-19.802,-19.8138,-19.8182,-19.7656,-19.7657,-19.7657,0,-19.6425,-19.6429,-19.6497,-19.6584,-19.66,-19.6703,-19.6521,-19.6637,-19.6712,-19.6554,-19.6706,-19.67,-19.6723,-19.6915,-19.6998,-19.6918,-19.732,-19.7181,-19.7207,-19.7214,-19.7321,-19.737,-19.7413,-19.6844,-19.6841,-19.6839,0,0,-19.6279,-19.6379,-19.6359,-19.6541,-19.656,-19.651,-19.6558,-19.6502,-19.6527,-19.6537,-19.6526,-19.6553,-19.6632,-19.6687,-19.6758,-19.6978,-19.6975,-19.7084,-19.7122,-19.7154,-19.7178,-19.7294,-19.7342,-19.6829,-19.6829,-19.6829,0,0,-19.6207,-19.6192,-19.6127,-19.6331,-19.6362,-19.635,-19.6463,-19.6381,-19.644,-19.6417,-19.6323,-19.6326,-19.6504,-19.6501,-19.6378,-19.6699,-19.654,-19.6568,-19.6694,-19.6742,-19.6779,-19.6775,-19.6188,0,0,0,0,0,-19.5996,-19.6194,-19.6136,-19.6161,-19.6267,-19.6384,-19.6397,-19.6326,-19.6216,-19.6307,-19.6284,-19.6179,-19.6416,-19.6305,-19.633,-19.6467,-19.6704,-19.6726,-19.6747,-19.6961,-19.7011,-19.7054,0,0,0,0,0,0,-19.6006,-19.6037,-19.613,-19.6129,-19.6152,-19.6376,-19.6174,-19.616,-19.6204,-19.6182,-19.6187,-19.6179,-19.6119,-19.6287,-19.6311,-19.6442,-19.618,-19.6713,-19.6732,-19.6749,-19.6978,-19.7019,-19.7055,0,0,0,0,0,-19.6013,-19.6038,-19.6227,-19.6125,-19.6145,-19.6099,-19.6166,-19.6153,-19.6185,-19.6149,-19.6138,-19.6128,-19.6125,-19.614,-19.6301,-19.6433,-19.6163,-19.6172,-19.6725,-19.674,-19.6753,-19.6999,0,0,0,0,0,0,-19.6018,-19.6026,-19.6229,-19.6232,-19.6045,-19.6085,-19.6089,-19.6147,-19.6147,-19.6139,-19.6084,-19.6067,-19.6131,-19.6141,-19.6154,-19.6434,-19.6149,-19.6158,-19.6164,-19.6736,-19.6748,-19.6758,0,0,0,0,0,0,-19.6011,-19.603,-19.6231,-19.6133,-19.6124,-19.6072,-19.6076,-19.6201,-19.6149,-19.6081,-19.6067,-19.6077,-19.6111,-19.6144,-19.6153,-19.6351,-19.6138,-19.6147,-19.6153,-19.6157,-19.6746,-19.6755,0,0,0,0,0,0,-19.6018,-19.6033,-19.6131,-19.6125,-19.6117,-19.6148,-19.618,-19.6292,-19.6069,-19.6083,-19.6047,-19.6037,-19.6117,-19.6124,-19.6153,-19.6348,-19.635,-19.6138,-19.6144,-19.6149,-19.6152,0,0,0,0,0,0,0,-19.6023,-19.5936,-19.621,-19.6119,-19.6111,-19.6263,-19.6264,-19.6265,-19.6067,-19.6058,-19.6049,-19.6041,-19.6087,-19.6097,-19.6107,-19.6346,0,0,-19.6138,-19.6142,0,0,0,0,0,0,0,0,-19.5928,-19.5934,-19.621,-19.6211,-19.6212,-19.6263,-19.6264,-19.6264,-19.6065,-19.6058,-19.6051,-19.6044,-19.609,-19.6098,-19.6106,0,0,0,0,0,0,0,0,0,0,0,0,0,0,0,-19.621,-19.6211,0,-19.6263,-19.6264,-19.6264,-19.6064,-19.6058,-19.6053,-19.6047,-19.6092,-19.6098,-19.6105,0,0,0,0,0,0,0,0,0,0,0,0,0,0,0,0,0,0,0,0,0,0,0,0,0,0,0,0,0,0,0,0,0,0,0,0,0,0,0,0,0,0,0,0,0,0,0,0,0,0,0,0,0,0,0,0,0,0,0,0,0,0,0,0,0,0,0,0,0]}]]]